Location: Clanezzo
(45.7500°N, 9.6000°E)
Time: 14:45:31
(UTC+00:00)

STARS - Visible Passes

Search period start: 02 July 2022 00:00
Search period end: 12 July 2022 00:00
Orbit: 622 x 636 km, 98.2° (Epoch: 01 July)

Date Brightness Start Highest point End Pass type
(mag) Time Alt. Az. Time Alt. Az. Time Alt. Az.
02 Jul ? 21:22:16 10° NE 21:26:02 27° E 21:27:05 25° ESE visible
02 Jul ? 22:58:26 10° N 23:02:18 31° WNW 23:04:27 20° WSW visible
03 Jul ? 21:42:03 10° NNE 21:46:15 43° E 21:47:23 35° SE visible
03 Jul ? 23:18:57 10° NNW 23:22:13 21° WNW 23:24:44 13° WSW visible
04 Jul ? 22:02:01 10° NNE 22:06:23 71° ESE 22:07:41 44° S visible
04 Jul ? 23:39:49 10° NNW 23:42:06 14° WNW 23:44:20 10° W visible
05 Jul ? 20:47:59 10° ENE 20:49:42 12° E 20:50:36 11° ESE visible
05 Jul ? 22:22:06 10° N 22:26:28 72° WNW 22:27:57 40° SSW visible
06 Jul ? 21:06:52 10° NE 21:10:00 19° E 21:10:53 18° ESE visible
06 Jul ? 22:42:19 10° N 22:46:29 45° WNW 22:48:15 29° WSW visible
07 Jul ? 21:26:24 10° NE 21:30:15 30° E 21:31:10 27° ESE visible
07 Jul ? 23:02:41 10° N 23:06:28 29° WNW 23:08:31 20° WSW visible
08 Jul ? 21:46:12 10° NNE 21:50:26 47° E 21:51:27 39° SE visible
08 Jul ? 23:23:15 10° NNW 23:26:22 19° WNW 23:28:48 13° WSW visible
09 Jul ? 22:06:11 10° NNE 22:10:34 78° ESE 22:11:43 48° S visible
09 Jul ? 23:44:14 10° NNW 23:46:13 13° WNW 23:48:12 10° W visible
10 Jul ? 20:51:51 10° ENE 20:53:54 13° E 20:54:38 13° E visible
10 Jul ? 22:26:17 10° N 22:30:38 66° WNW 22:31:59 41° SW visible
11 Jul ? 21:10:54 10° NE 21:14:12 21° E 21:14:54 20° ESE visible
11 Jul ? 22:46:32 10° N 22:50:38 41° WNW 22:52:16 29° WSW visible
